This is the latest recevied weather packets stored in our database for station/object KH6DH-13. If no packets are shown the sender has not sent any weather packets the latest 10 day(s).
| Time | Temp. | Humidity | Pressure | Rain* | Wind** | Luminosity | Snow |
|---|---|---|---|---|---|---|---|
| 1788476169 | 28.89° C | - | - | 0 mm | 2.68 m/s, 107° | - | - |
| 1788475568 | 28.89° C | - | - | 0 mm | 1.34 m/s, 68° | - | - |
| 1788474988 | 28.89° C | - | - | 0 mm | 0.45 m/s, 128° | - | - |
| 1788474364 | 28.89° C | - | - | 0 mm | 3.58 m/s, 114° | - | - |
| 1788473763 | 28.89° C | - | - | 0 mm | 1.79 m/s, 108° | - | - |
| 1788473162 | 28.89° C | - | - | 0 mm | 1.79 m/s, 158° | - | - |
| 1788472561 | 28.89° C | - | - | 0 mm | 0.45 m/s, 170° | - | - |
| 1788471960 | 28.89° C | - | - | 0 mm | 0.89 m/s, 124° | - | - |
| 1788471359 | 28.89° C | - | - | 0 mm | 2.24 m/s, 55° | - | - |
| 1788470758 | 28.89° C | - | - | 0 mm | 2.68 m/s, 37° | - | - |
| 1788470157 | 28.89° C | - | - | 0 mm | 1.79 m/s, 110° | - | - |
| 1788469556 | 28.33° C | - | - | 0 mm | 2.68 m/s, 39° | - | - |
| 1788468953 | 28.33° C | - | - | 0 mm | 1.79 m/s, 63° | - | - |
| 1788468352 | 27.78° C | - | - | 0 mm | 0.89 m/s, 30° | - | - |
| 1788467751 | 27.78° C | - | - | 0 mm | 2.24 m/s, 59° | - | - |
| 1788467150 | 27.78° C | - | - | 0 mm | 1.79 m/s, 339° | - | - |
| 1788466549 | 27.78° C | - | - | 0 mm | 0.89 m/s, 55° | - | - |
| 1788465948 | 27.22° C | - | - | 0 mm | 1.79 m/s, 87° | - | - |
| 1788465347 | 26.67° C | - | - | 0 mm | 1.34 m/s, 86° | - | - |
| 1788464746 | 26.67° C | - | - | 0 mm | 1.34 m/s, 70° | - | - |
| 1788464145 | 26.67° C | - | - | 0 mm | 1.79 m/s, 86° | - | - |
| 1788463544 | 26.11° C | - | - | 0.76 mm | 1.79 m/s, 359° | - | - |
| 1788462943 | 25.56° C | - | - | 0.76 mm | 1.79 m/s, 294° | - | - |
| 1788462337 | 25.56° C | - | - | 0.76 mm | 2.24 m/s, 77° | - | - |
| 1788461736 | 25° C | - | - | 0.76 mm | 2.68 m/s, 335° | - | - |
* Rain latest hour (hover to see other rain measurements)
** Current wind speed in m/s (hover to see current wind gust speed)